Location: Charbonni�res
(45.9952°N, 2.9982°E)
Time: 14:24:44
(UTC+00:00)

CZ-4B R/B - Pass Details

Date: 29 November 2020
Orbit: 485 x 653 km, 97.9° (Epoch: 26 January)

Event Time Altitude Azimuth Distance (km) Brightness Sun altitude
Rises 05:07:53 0° 13° (NNE) 2,989 6.6 -20.1°
Reaches altitude 10° 05:10:07 10° 13° (NNE) 2,070 5.8 -19.8°
Maximum altitude 05:14:41 89° 108° (ESE) 651 3.1 -19.0°
Drops below altitude 10° 05:19:05 10° 194° (SSW) 2,004 5.7 -18.2°
Sets 05:21:13 0° 195° (SSW) 2,886 6.5 -17.9°
